Regional Weather Roundup
Issued by NWS Little Rock, AR

Home | Current Version | Previous Version | Text Only | Print | Product List | Glossary On
Versions: 1 2 3 4 5 6 7 8 9 10 11 12 13 14 15 16 17 18 19 20 21 22 23 24 25 26 27 28 29 30 31 32
000
ASUS44 KLZK 281212
RWRLZK

WEATHER ROUNDUP FOR ARKANSAS
NATIONAL WEATHER SERVICE LITTLE ROCK AR
700 AM CDT WED JUN 28 2017

NOTE: "FAIR" INDICATES FEW OR NO CLOUDS BELOW 12,000 FEET WITH NO
SIGNIFICANT WEATHER AND/OR OBSTRUCTIONS TO VISIBILITY.

ARZ001-003-010-029-281300-
NORTHWEST ARKANSAS

CITY           SKY/WX    TMP DP  RH WIND       PRES   REMARKS
FAYETTEVILLE   CLEAR     69  63  81 S6        30.02R
6HR MIN TEMP:  67; 6HR MAX TEMP:  71;

FORT SMITH     CLEAR     69  65  86 E7        29.99R
6HR MIN TEMP:  68; 6HR MAX TEMP:  71;

HARRISON       SUNNY     67  62  84 SE6       30.04R
6HR MIN TEMP:  63; 6HR MAX TEMP:  67;

BENTONVILLE    CLEAR     70  61  73 S5        30.03R
6HR MIN TEMP:  66; 6HR MAX TEMP:  70;

ROGERS         CLEAR     69  62  78 S7        30.03R
6HR MIN TEMP:  67; 6HR MAX TEMP:  70;

SILOAM SPGS    CLEAR     70  61  73 S9        30.01R
6HR MIN TEMP:  68; 6HR MAX TEMP:  70;

HIGHFILL       CLEAR     69  63  81 S7        30.02R
6HR MIN TEMP:  67; 6HR MAX TEMP:  70;

SPRINGDALE     CLEAR     70  63  78 S7        30.04R
$$

ARZ004-005-016-281300-
NORTH CENTRAL ARKANSAS

CITY           SKY/WX    TMP DP  RH WIND       PRES   REMARKS
BATESVILLE     SUNNY     68  63  83 CALM      30.05R
6HR MIN TEMP:  64; 6HR MAX TEMP:  70;

FLIPPIN        SUNNY     63  57  82 CALM      30.01R
6HR MIN TEMP:  63; 6HR MAX TEMP:  68;

MTN HOME       SUNNY     66  62  87 SE6       30.03R
6HR MIN TEMP:  64; 6HR MAX TEMP:  67;

$$

ARZ040-041-281300-
WEST CENTRAL ARKANSAS

CITY           SKY/WX    TMP DP  RH WIND       PRES   REMARKS
MENA           MOCLDY    73  72  94 CALM      30.03R
MOUNT IDA      CLEAR     65  62  90 CALM      30.00R
6HR MIN TEMP:  64; 6HR MAX TEMP:  70;

$$

ARZ009-017-025-026-028-281300-
NORTHEAST ARKANSAS

CITY           SKY/WX    TMP DP  RH WIND       PRES   REMARKS
CORNING        FAIR      68  68 100 S6        30.06R
JONESBORO      SUNNY     69  67  93 CALM      30.05R
6HR MIN TEMP:  65; 6HR MAX TEMP:  69;

WALNUT RIDGE   SUNNY     70  63  78 CALM      30.05R
6HR MIN TEMP:  66; 6HR MAX TEMP:  70;

BLYTHEVILLE    CLOUDY    71  64  78 S9        30.06S
6HR MIN TEMP:  69; 6HR MAX TEMP:  72;

$$

ARZ022-023-033-042-044-281300-
CENTRAL ARKANSAS

CITY           SKY/WX    TMP DP  RH WIND       PRES   REMARKS
LITTLE ROCK    MOSUNNY   69  69 100 CALM      30.02F
6HR MIN TEMP:  67; 6HR MAX TEMP:  70;

N LITTLE ROCK    N/A     71  67  88 CALM      30.02S
6HR MIN TEMP:  68; 6HR MAX TEMP:  72;

JACKSONVILLE   SUNNY     67  66  99 CALM      30.02S
6HR MIN TEMP:  64; 6HR MAX TEMP:  67;

CONWAY           N/A     68  66  94 CALM      30.01R
SEARCY         SUNNY     68  67  96 CALM      30.05S
6HR MIN TEMP:  65; 6HR MAX TEMP:  69;

HOT SPRINGS    PTCLDY    70  64  81 E5        30.02S
6HR MIN TEMP:  66; 6HR MAX TEMP:  71;

RUSSELLVILLE   SUNNY     67  65  93 CALM      30.01R
6HR MIN TEMP:  64; 6HR MAX TEMP:  70;

CLINTON        FAIR      61  61 100 CALM      30.04F
$$

ARZ036-281300-
EAST ARKANSAS

CITY           SKY/WX    TMP DP  RH WIND       PRES   REMARKS
WEST MEMPHIS   SUNNY     69  67  93 SE7       30.04S
6HR MIN TEMP:  66; 6HR MAX TEMP:  73;

$$

ARZ050-053-066-070-073-281300-
SOUTHWEST ARKANSAS

CITY           SKY/WX    TMP DP  RH WIND       PRES   REMARKS
ARKADELPHIA    FAIR      66  65  96 CALM      30.02F
6HR MIN TEMP:  64; 6HR MAX TEMP:  68;

CAMDEN         CLEAR     66  64  94 CALM      30.02R
TEXARKANA      PTCLDY    71  67  87 SE6       29.99F
6HR MIN TEMP:  69; 6HR MAX TEMP:  73;

EL DORADO      CLEAR     67  66  97 CALM      30.02R
6HR MIN TEMP:  65; 6HR MAX TEMP:  69;

DE QUEEN       CLEAR     68  68 100 NE3       29.98R
6HR MIN TEMP:  67; 6HR MAX TEMP:  71;

$$

ARZ056-057-069-281300-
SOUTHEAST ARKANSAS

CITY           SKY/WX    TMP DP  RH WIND       PRES   REMARKS
PINE BLUFF     SUNNY     70  68  93 SE3       30.03S
6HR MIN TEMP:  66; 6HR MAX TEMP:  70;

STUTTGART      SUNNY     72  55  56 SE6       30.05R
6HR MIN TEMP:  70; 6HR MAX TEMP:  73;

MONTICELLO     MOSUNNY   69  66  90 CALM      30.04R
6HR MIN TEMP:  67; 6HR MAX TEMP:  71;


$$






USA.gov is the U.S. government's official web portal to all federal, state and local government web resources and services.